Time,TemperatureF,DewpointF,PressureIn,WindDirection,WindDirectionDegrees,WindSpeedMPH,WindSpeedGustMPH,Humidity,HourlyPrecipIn,Conditions,Clouds,dailyrainin,SoftwareType,DateUTC
2013-05-08 00:01:00,52.0,50.0,-100.00,NE,34,4.0,6.0,92,-99.99,,,-99.99,,2013-05-08 07:01:00,
2013-05-08 00:11:00,53.0,51.0,-100.00,NE,52,3.0,5.0,92,-99.99,,,-99.99,,2013-05-08 07:11:00,
2013-05-08 00:21:00,53.0,51.0,-100.00,ENE,60,4.0,5.0,92,-99.99,,,-99.99,,2013-05-08 07:21:00,
2013-05-08 00:31:00,53.0,51.0,-100.00,NE,51,3.0,6.0,93,-99.99,,,-99.99,,2013-05-08 07:31:00,
2013-05-08 00:42:00,54.0,52.0,-100.00,NE,39,2.0,4.0,93,-99.99,,,-99.99,,2013-05-08 07:42:00,
2013-05-08 00:52:00,54.0,52.0,-100.00,East,98,2.0,2.0,92,-99.99,,,-99.99,,2013-05-08 07:52:00,
2013-05-08 01:01:00,54.0,52.0,-100.00,NE,45,2.0,3.0,92,-99.99,,,-99.99,,2013-05-08 08:01:00,
2013-05-08 01:11:00,54.0,52.0,-100.00,NE,54,3.0,4.0,92,-99.99,,,-99.99,,2013-05-08 08:11:00,
2013-05-08 01:21:00,55.0,53.0,-100.00,NE,51,3.0,4.0,92,-99.99,,,-99.99,,2013-05-08 08:21:00,
2013-05-08 01:31:00,55.0,53.0,-100.00,NE,51,3.0,4.0,92,-99.99,,,-99.99,,2013-05-08 08:31:00,
2013-05-08 01:42:00,55.0,53.0,-100.00,NE,56,3.0,4.0,92,-99.99,,,-99.99,,2013-05-08 08:42:00,
2013-05-08 01:51:00,55.0,53.0,-100.00,NE,45,3.0,4.0,92,-99.99,,,-99.99,,2013-05-08 08:51:00,
2013-05-08 02:01:00,55.0,53.0,-100.00,NE,43,3.0,4.0,92,-99.99,,,-99.99,,2013-05-08 09:01:00,
2013-05-08 02:11:00,55.0,53.0,-100.00,NE,46,2.0,3.0,92,-99.99,,,-99.99,,2013-05-08 09:11:00,
2013-05-08 02:21:00,55.0,53.0,-100.00,NE,56,3.0,4.0,92,-99.99,,,-99.99,,2013-05-08 09:21:00,
2013-05-08 02:32:00,55.0,53.0,-100.00,NE,44,2.0,2.0,92,-99.99,,,-99.99,,2013-05-08 09:32:00,
2013-05-08 02:42:00,55.0,53.0,-100.00,NE,55,1.0,3.0,92,-99.99,,,-99.99,,2013-05-08 09:42:00,
2013-05-08 02:52:00,55.0,53.0,-100.00,ENE,65,2.0,3.0,92,-99.99,,,-99.99,,2013-05-08 09:52:00,
2013-05-08 03:02:00,55.0,53.0,-100.00,ENE,64,0.0,2.0,92,-99.99,,,-99.99,,2013-05-08 10:02:00,
2013-05-08 03:12:00,56.0,54.0,-100.00,East,80,1.0,2.0,92,-99.99,,,-99.99,,2013-05-08 10:12:00,
2013-05-08 03:22:00,55.0,53.0,-100.00,NE,47,2.0,3.0,92,-99.99,,,-99.99,,2013-05-08 10:22:00,
2013-05-08 03:33:00,55.0,53.0,-100.00,NE,52,3.0,3.0,93,-99.99,,,-99.99,,2013-05-08 10:33:00,
2013-05-08 03:42:00,55.0,53.0,-100.00,NE,44,3.0,4.0,93,-99.99,,,-99.99,,2013-05-08 10:42:00,
2013-05-08 03:52:00,56.0,54.0,-100.00,NE,47,3.0,4.0,93,-99.99,,,-99.99,,2013-05-08 10:52:00,
2013-05-08 04:02:00,56.0,54.0,-100.00,NE,38,3.0,5.0,93,-99.99,,,-99.99,,2013-05-08 11:02:00,
2013-05-08 04:11:00,56.0,54.0,-100.00,NNE,32,2.0,4.0,93,-99.99,,,-99.99,,2013-05-08 11:11:00,
2013-05-08 04:22:00,56.0,54.0,-100.00,North,2,1.0,2.0,93,-99.99,,,-99.99,,2013-05-08 11:22:00,
2013-05-08 04:32:00,56.0,54.0,-100.00,NNE,15,1.0,3.0,93,-99.99,,,-99.99,,2013-05-08 11:32:00,
2013-05-08 04:41:00,56.0,54.0,-100.00,ENE,57,3.0,4.0,92,-99.99,,,-99.99,,2013-05-08 11:41:00,
2013-05-08 04:52:00,56.0,54.0,-100.00,NE,39,3.0,4.0,93,-99.99,,,-99.99,,2013-05-08 11:52:00,
2013-05-08 05:01:00,56.0,54.0,-100.00,NE,39,3.0,4.0,93,-99.99,,,-99.99,,2013-05-08 12:01:00,
2013-05-08 05:11:00,56.0,54.0,-100.00,NE,47,2.0,4.0,93,-99.99,,,-99.99,,2013-05-08 12:11:00,
2013-05-08 05:21:00,56.0,54.0,-100.00,NNE,31,3.0,5.0,93,-99.99,,,-99.99,,2013-05-08 12:21:00,
2013-05-08 05:31:00,55.0,53.0,-100.00,NE,39,4.0,6.0,93,-99.99,,,-99.99,,2013-05-08 12:31:00,
2013-05-08 05:41:00,55.0,53.0,-100.00,NE,39,4.0,6.0,93,-99.99,,,-99.99,,2013-05-08 12:41:00,
2013-05-08 05:51:00,56.0,54.0,-100.00,NNE,18,3.0,4.0,93,-99.99,,,-99.99,,2013-05-08 12:51:00,
2013-05-08 06:01:00,56.0,54.0,-100.00,NE,56,2.0,3.0,93,-99.99,,,-99.99,,2013-05-08 13:01:00,
2013-05-08 06:11:00,55.0,53.0,-100.00,ENE,67,2.0,3.0,92,-99.99,,,-99.99,,2013-05-08 13:11:00,
2013-05-08 06:21:00,55.0,53.0,-100.00,ENE,68,2.0,3.0,93,-99.99,,,-99.99,,2013-05-08 13:21:00,
2013-05-08 06:32:00,55.0,53.0,-100.00,NE,47,1.0,2.0,93,-99.99,,,-99.99,,2013-05-08 13:32:00,
2013-05-08 06:42:00,55.0,53.0,-100.00,ENE,61,1.0,2.0,93,-99.99,,,-99.99,,2013-05-08 13:42:00,
2013-05-08 06:52:00,55.0,53.0,-100.00,ENE,62,2.0,3.0,93,-99.99,,,-99.99,,2013-05-08 13:52:00,
2013-05-08 07:02:00,55.0,53.0,-100.00,ENE,62,2.0,3.0,93,-99.99,,,-99.99,,2013-05-08 14:02:00,
2013-05-08 07:11:00,55.0,53.0,-100.00,ENE,62,2.0,3.0,93,-99.99,,,-99.99,,2013-05-08 14:11:00,
2013-05-08 07:21:00,55.0,53.0,-100.00,NNE,30,4.0,6.0,94,-99.99,,,-99.99,,2013-05-08 14:21:00,
2013-05-08 07:31:00,55.0,53.0,-100.00,NNE,28,4.0,6.0,94,-99.99,,,-99.99,,2013-05-08 14:31:00,
2013-05-08 07:42:00,56.0,54.0,-100.00,NE,44,2.0,4.0,93,-99.99,,,-99.99,,2013-05-08 14:42:00,
2013-05-08 07:51:00,56.0,53.0,-100.00,NNE,31,3.0,5.0,91,-99.99,,,-99.99,,2013-05-08 14:51:00,
2013-05-08 08:01:00,57.0,54.0,-100.00,NNE,27,4.0,5.0,89,-99.99,,,-99.99,,2013-05-08 15:01:00,
2013-05-08 08:11:00,58.0,54.0,-100.00,NNE,24,3.0,4.0,87,-99.99,,,-99.99,,2013-05-08 15:11:00,
2013-05-08 08:21:00,60.0,54.0,-100.00,North,10,5.0,8.0,81,-99.99,,,-99.99,,2013-05-08 15:21:00,
2013-05-08 08:32:00,60.0,53.0,-100.00,NW,324,4.0,7.0,78,-99.99,,,-99.99,,2013-05-08 15:32:00,
2013-05-08 08:42:00,60.0,53.0,-100.00,NW,313,4.0,6.0,77,-99.99,,,-99.99,,2013-05-08 15:42:00,
2013-05-08 08:52:00,60.0,52.0,-100.00,West,260,3.0,4.0,76,-99.99,,,-99.99,,2013-05-08 15:52:00,
2013-05-08 09:02:00,60.0,52.0,-100.00,WSW,247,3.0,7.0,75,-99.99,,,-99.99,,2013-05-08 16:02:00,
2013-05-08 09:12:00,61.0,53.0,-100.00,West,273,3.0,8.0,75,-99.99,,,-99.99,,2013-05-08 16:12:00,
2013-05-08 09:23:00,62.0,53.0,-100.00,WNW,291,2.0,6.0,73,-99.99,,,-99.99,,2013-05-08 16:23:00,
2013-05-08 09:33:00,63.0,53.0,-100.00,SSE,153,2.0,4.0,69,-99.99,,,-99.99,,2013-05-08 16:33:00,
2013-05-08 09:42:00,63.0,53.0,-100.00,SSE,153,2.0,4.0,69,-99.99,,,-99.99,,2013-05-08 16:42:00,
2013-05-08 09:52:00,62.0,51.0,-100.00,WSW,250,5.0,9.0,68,-99.99,,,-99.99,,2013-05-08 16:52:00,
2013-05-08 10:02:00,63.0,51.0,-100.00,SW,220,3.0,8.0,66,-99.99,,,-99.99,,2013-05-08 17:02:00,
2013-05-08 10:11:00,63.0,50.0,-100.00,SW,235,4.0,7.0,62,-99.99,,,-99.99,,2013-05-08 17:11:00,
2013-05-08 10:22:00,64.0,50.0,-100.00,SW,235,4.0,9.0,60,-99.99,,,-99.99,,2013-05-08 17:22:00,
2013-05-08 10:31:00,65.0,52.0,-100.00,WSW,251,5.0,11.0,62,-99.99,,,-99.99,,2013-05-08 17:31:00,
2013-05-08 10:41:00,65.0,52.0,-100.00,WSW,251,5.0,11.0,62,-99.99,,,-99.99,,2013-05-08 17:41:00,
2013-05-08 10:52:00,64.0,53.0,-100.00,SSW,209,6.0,11.0,67,-99.99,,,-99.99,,2013-05-08 17:52:00,
2013-05-08 11:01:00,64.0,54.0,-100.00,SW,220,7.0,11.0,70,-99.99,,,-99.99,,2013-05-08 18:01:00,
2013-05-08 11:11:00,64.0,54.0,-100.00,SSW,213,7.0,11.0,70,-99.99,,,-99.99,,2013-05-08 18:11:00,
2013-05-08 11:21:00,64.0,54.0,-100.00,SW,230,8.0,15.0,69,-99.99,,,-99.99,,2013-05-08 18:21:00,
2013-05-08 11:31:00,64.0,53.0,-100.00,SW,219,8.0,14.0,68,-99.99,,,-99.99,,2013-05-08 18:31:00,
2013-05-08 11:42:00,65.0,54.0,-100.00,SSW,213,7.0,13.0,67,-99.99,,,-99.99,,2013-05-08 18:42:00,
2013-05-08 11:51:00,65.0,53.0,-100.00,SW,228,8.0,14.0,66,-99.99,,,-99.99,,2013-05-08 18:51:00,
2013-05-08 12:01:00,65.0,53.0,-100.00,SW,228,8.0,14.0,66,-99.99,,,-99.99,,2013-05-08 19:01:00,
2013-05-08 12:11:00,65.0,53.0,-100.00,SW,218,9.0,15.0,65,-99.99,,,-99.99,,2013-05-08 19:11:00,
2013-05-08 12:21:00,64.0,53.0,-100.00,SSW,210,9.0,16.0,68,-99.99,,,-99.99,,2013-05-08 19:21:00,
2013-05-08 12:32:00,64.0,53.0,-100.00,SSW,208,9.0,15.0,68,-99.99,,,-99.99,,2013-05-08 19:32:00,
2013-05-08 12:41:00,64.0,53.0,-100.00,SSW,213,9.0,14.0,67,-99.99,,,-99.99,,2013-05-08 19:41:00,
2013-05-08 12:52:00,64.0,53.0,-100.00,SSW,213,9.0,14.0,67,-99.99,,,-99.99,,2013-05-08 19:52:00,
2013-05-08 13:01:00,64.0,52.0,-100.00,SSW,213,9.0,15.0,65,-99.99,,,-99.99,,2013-05-08 20:01:00,
2013-05-08 13:11:00,64.0,52.0,-100.00,SSW,212,9.0,16.0,64,-99.99,,,-99.99,,2013-05-08 20:11:00,
2013-05-08 13:22:00,64.0,52.0,-100.00,SSW,210,10.0,16.0,64,-99.99,,,-99.99,,2013-05-08 20:22:00,
2013-05-08 13:32:00,63.0,51.0,-100.00,SW,220,9.0,15.0,66,-99.99,,,-99.99,,2013-05-08 20:32:00,
2013-05-08 13:41:00,63.0,51.0,-100.00,SW,220,9.0,15.0,66,-99.99,,,-99.99,,2013-05-08 20:41:00,
2013-05-08 13:51:00,62.0,51.0,-100.00,SSW,208,8.0,12.0,67,-99.99,,,-99.99,,2013-05-08 20:51:00,
2013-05-08 14:01:00,62.0,51.0,-100.00,SSW,208,8.0,12.0,67,-99.99,,,-99.99,,2013-05-08 21:01:00,
2013-05-08 14:11:00,62.0,51.0,-100.00,SSW,211,7.0,12.0,67,-99.99,,,-99.99,,2013-05-08 21:11:00,
2013-05-08 14:21:00,63.0,51.0,-100.00,SSW,203,6.0,11.0,64,-99.99,,,-99.99,,2013-05-08 21:21:00,
2013-05-08 14:32:00,63.0,51.0,-100.00,SW,218,5.0,9.0,66,-99.99,,,-99.99,,2013-05-08 21:32:00,
2013-05-08 14:43:00,63.0,51.0,-100.00,SW,218,5.0,9.0,66,-99.99,,,-99.99,,2013-05-08 21:43:00,
2013-05-08 14:52:00,62.0,51.0,-100.00,SSW,206,6.0,10.0,67,-99.99,,,-99.99,,2013-05-08 21:52:00,
2013-05-08 15:02:00,62.0,51.0,-100.00,SSW,206,6.0,10.0,67,-99.99,,,-99.99,,2013-05-08 22:02:00,
2013-05-08 15:12:00,62.0,51.0,-100.00,WSW,243,5.0,10.0,67,-99.99,,,-99.99,,2013-05-08 22:12:00,
2013-05-08 15:22:00,63.0,52.0,-100.00,SW,228,4.0,8.0,67,-99.99,,,-99.99,,2013-05-08 22:22:00,
2013-05-08 15:33:00,63.0,51.0,-100.00,SW,232,5.0,12.0,66,-99.99,,,-99.99,,2013-05-08 22:33:00,
2013-05-08 15:42:00,63.0,51.0,-100.00,SW,232,5.0,12.0,66,-99.99,,,-99.99,,2013-05-08 22:42:00,
2013-05-08 15:52:00,64.0,52.0,-100.00,SW,218,6.0,8.0,66,-99.99,,,-99.99,,2013-05-08 22:52:00,
2013-05-08 16:01:00,64.0,52.0,-100.00,SW,216,6.0,10.0,64,-99.99,,,-99.99,,2013-05-08 23:01:00,
2013-05-08 16:11:00,65.0,52.0,-100.00,SSW,204,7.0,11.0,62,-99.99,,,-99.99,,2013-05-08 23:11:00,
2013-05-08 16:22:00,66.0,51.0,-100.00,SW,223,8.0,16.0,59,-99.99,,,-99.99,,2013-05-08 23:22:00,
2013-05-08 16:32:00,65.0,50.0,-100.00,SSW,212,9.0,15.0,58,-99.99,,,-99.99,,2013-05-08 23:32:00,
2013-05-08 16:42:00,65.0,49.0,-100.00,SW,219,9.0,14.0,57,-99.99,,,-99.99,,2013-05-08 23:42:00,
2013-05-08 16:52:00,65.0,50.0,-100.00,SW,219,8.0,12.0,59,-99.99,,,-99.99,,2013-05-08 23:52:00,
2013-05-08 17:01:00,65.0,51.0,-100.00,SW,235,7.0,13.0,60,-99.99,,,-99.99,,2013-05-09 00:01:00,
2013-05-08 17:11:00,65.0,51.0,-100.00,WSW,238,7.0,12.0,60,-99.99,,,-99.99,,2013-05-09 00:11:00,
2013-05-08 17:21:00,65.0,50.0,-100.00,WSW,239,6.0,11.0,59,-99.99,,,-99.99,,2013-05-09 00:21:00,
2013-05-08 17:32:00,66.0,50.0,-100.00,WSW,243,7.0,12.0,57,-99.99,,,-99.99,,2013-05-09 00:32:00,
2013-05-08 17:42:00,66.0,50.0,-100.00,WSW,243,7.0,12.0,57,-99.99,,,-99.99,,2013-05-09 00:42:00,
2013-05-08 17:51:00,66.0,49.0,-100.00,WSW,246,8.0,14.0,54,-99.99,,,-99.99,,2013-05-09 00:51:00,
2013-05-08 18:01:00,66.0,49.0,-100.00,West,259,8.0,15.0,54,-99.99,,,-99.99,,2013-05-09 01:01:00,
2013-05-08 18:11:00,66.0,49.0,-100.00,WSW,250,7.0,13.0,55,-99.99,,,-99.99,,2013-05-09 01:11:00,
2013-05-08 18:22:00,65.0,48.0,-100.00,WSW,246,8.0,13.0,55,-99.99,,,-99.99,,2013-05-09 01:22:00,
2013-05-08 18:32:00,65.0,48.0,-100.00,WSW,243,8.0,12.0,54,-99.99,,,-99.99,,2013-05-09 01:32:00,
2013-05-08 18:42:00,65.0,48.0,-100.00,WSW,241,7.0,12.0,55,-99.99,,,-99.99,,2013-05-09 01:42:00,
2013-05-08 18:50:00,63.0,47.0,-100.00,WSW,252,6.0,13.0,56,-99.99,,,-99.99,,2013-05-09 01:50:00,
2013-05-08 18:52:00,64.0,48.0,-100.00,WSW,247,8.0,13.0,56,-99.99,,,-99.99,,2013-05-09 01:52:00,
2013-05-08 19:02:00,64.0,48.0,-100.00,WSW,255,4.0,8.0,56,-99.99,,,-99.99,,2013-05-09 02:02:00,
2013-05-08 19:11:00,64.0,48.0,-100.00,WSW,247,5.0,9.0,56,-99.99,,,-99.99,,2013-05-09 02:11:00,
2013-05-08 19:21:00,63.0,47.0,-100.00,WSW,252,6.0,13.0,56,-99.99,,,-99.99,,2013-05-09 02:21:00,
2013-05-08 19:32:00,63.0,47.0,-100.00,WSW,252,6.0,13.0,56,-99.99,,,-99.99,,2013-05-09 02:32:00,
2013-05-08 19:41:00,63.0,47.0,-100.00,WSW,252,6.0,13.0,56,-99.99,,,-99.99,,2013-05-09 02:41:00,
2013-05-08 20:01:00,63.0,46.0,-100.00,WSW,238,3.0,8.0,53,-99.99,,,-99.99,,2013-05-09 03:01:00,
2013-05-08 20:11:00,62.0,44.0,-100.00,WSW,248,1.0,2.0,52,-99.99,,,-99.99,,2013-05-09 03:11:00,
2013-05-08 20:21:00,62.0,44.0,-100.00,NW,308,1.0,4.0,52,-99.99,,,-99.99,,2013-05-09 03:21:00,
2013-05-08 20:33:00,61.0,43.0,-100.00,ENE,75,1.0,2.0,51,-99.99,,,-99.99,,2013-05-09 03:33:00,
2013-05-08 20:43:00,60.0,43.0,-100.00,ENE,73,2.0,2.0,54,-99.99,,,-99.99,,2013-05-09 03:43:00,
2013-05-08 20:52:00,60.0,44.0,-100.00,NNE,31,2.0,3.0,56,-99.99,,,-99.99,,2013-05-09 03:52:00,
2013-05-08 21:03:00,60.0,44.0,-100.00,NNE,31,2.0,3.0,56,-99.99,,,-99.99,,2013-05-09 04:03:00,
2013-05-08 21:12:00,57.0,44.0,-100.00,NE,47,3.0,5.0,62,-99.99,,,-99.99,,2013-05-09 04:12:00,
2013-05-08 21:23:00,56.0,45.0,-100.00,ENE,57,5.0,7.0,66,-99.99,,,-99.99,,2013-05-09 04:23:00,
2013-05-08 21:32:00,56.0,45.0,-100.00,NE,52,4.0,5.0,67,-99.99,,,-99.99,,2013-05-09 04:32:00,
2013-05-08 21:42:00,55.0,45.0,-100.00,NE,52,3.0,5.0,68,-99.99,,,-99.99,,2013-05-09 04:42:00,
2013-05-08 21:52:00,55.0,45.0,-100.00,NE,49,4.0,5.0,70,-99.99,,,-99.99,,2013-05-09 04:52:00,
2013-05-08 22:02:00,55.0,45.0,-100.00,NE,54,3.0,5.0,70,-99.99,,,-99.99,,2013-05-09 05:02:00,
2013-05-08 22:11:00,55.0,46.0,-100.00,ENE,66,2.0,3.0,71,-99.99,,,-99.99,,2013-05-09 05:11:00,
2013-05-08 22:22:00,55.0,46.0,-100.00,ENE,60,2.0,2.0,72,-99.99,,,-99.99,,2013-05-09 05:22:00,
2013-05-08 22:32:00,55.0,47.0,-100.00,NE,49,3.0,4.0,73,-99.99,,,-99.99,,2013-05-09 05:32:00,
2013-05-08 22:42:00,55.0,47.0,-100.00,NE,45,3.0,4.0,73,-99.99,,,-99.99,,2013-05-09 05:42:00,
2013-05-08 22:51:00,55.0,47.0,-100.00,NE,53,3.0,4.0,73,-99.99,,,-99.99,,2013-05-09 05:51:00,
2013-05-08 23:01:00,55.0,47.0,-100.00,NE,53,2.0,3.0,73,-99.99,,,-99.99,,2013-05-09 06:01:00,
2013-05-08 23:11:00,55.0,47.0,-100.00,NE,53,3.0,4.0,74,-99.99,,,-99.99,,2013-05-09 06:11:00,
2013-05-08 23:21:00,55.0,47.0,-100.00,NE,55,3.0,4.0,75,-99.99,,,-99.99,,2013-05-09 06:21:00,
2013-05-08 23:32:00,55.0,47.0,-100.00,NE,54,2.0,4.0,75,-99.99,,,-99.99,,2013-05-09 06:32:00,
2013-05-08 23:42:00,55.0,47.0,-100.00,ENE,62,3.0,4.0,75,-99.99,,,-99.99,,2013-05-09 06:42:00,
2013-05-08 23:52:00,56.0,48.0,-100.00,NE,53,3.0,4.0,75,-99.99,,,-99.99,,2013-05-09 06:52:00,